Temperature
17 17 17 17 16 16 16 16 16 16 16 16 16 17 17 17 17 17 17 17 17 16 17 17 16 16 16 16 16 16 16 16 16 16 16 16 16 16 16 15 16 15 15
17 17 17 17 16 16 16 16 16 16 16 16 16 16 17 17 17 17 17 16 16 16 16 16 16 16 16 16 16 16 16 16 16 16 16 16 16 16 16 16 16 15 15
17 17 16 16 16 16 16 16 16 16 16 16 16 16 16 16 16 16 16 16 16 16 16 16 16 16 16 16 16 16 16 16 16 16 16 16 16 16 16 16 16 15 15
17 16 16 16 16 16 16 16 16 16 16 16 16 16 16 16 16 16 16 16 16 16 16 16 16 16 16 16 16 16 16 16 16 16 16 16 16 16 16 16 16 15 15
16 16 16 16 16 15 15 16 16 16 16 16 16 15 16 16 16 16 16 16 16 16 16 16 16 16 15 15 15 15 16 16 16 16 16 16 15 15 15 15 15 15 15
16 16 16 16 15 15 15 15 15 15 15 15 15 15 15 15 15 15 15 15 15 15 15 15 15 15 15 15 15 15 15 15 15 15 15 15 15 15 15 15 15 15 15
16 16 16 15 15 15 15 15 15 15 15 15 15 15 15 15 15 15 15 15 15 15 15 15 15 15 15 15 15 15 15 15 15 15 15 15 15 15 15 15 15 15 15
16 16 15 15 15 15 15 15 15 15 15 15 15 15 15 15 15 15 15 15 15 15 15 15 15 15 15 15 15 15 15 15 15 15 15 15 15 15 15 15 15 15 15
16 16 15 15 15 15 15 15 15 15 15 15 15 15 15 15 15 15 15 15 15 15 15 15 15 15 15 15 15 15 15 15 15 15 15 15 15 15 15 15 15 15 15
15 15 15 15 15 15 15 15 15 15 15 15 15 15 15 15 15 15 15 15 15 15 15 15 15 15 15 15 15 15 15 15 15 15 14 14 15 15 15 15 15 15 15
15 15 15 15 15 15 15 15 15 15 15 15 15 15 15 15 15 15 15 15 15 15 15 15 15 15 15 15 15 14 14 14 14 14 14 14 14 14 14 14 14 14 14
15 15 15 15 15 15 15 15 15 15 15 15 15 15 15 15 15 15 15 15 15 15 15 15 15 15 15 15 14 14 14 14 14 14 14 14 14 14 14 14 14 14 14
16 15 15 15 15 15 15 15 15 15 15 15 15 15 15 15 15 15 15 15 15 15 15 15 15 15 15 15 15 14 14 14 14 14 14 14 14 14 14 14 14 14 14
16 16 15 15 15 15 15 15 15 15 15 15 15 15 15 15 15 15 15 15 15 15 15 15 15 15 15 15 15 14 14 14 14 14 14 14 14 14 14 14 14 14 14
16 16 16 15 15 15 15 15 15 15 15 15 15 14 14 14 14 14 15 15 14 14 15 15 15 15 15 15 14 14 14 14 14 14 14 14 14 14 14 14 14 14 14
16 16 16 15 15 15 15 15 15 15 15 15 14 14 14 14 14 14 14 14 14 14 14 15 15 15 15 15 14 14 14 14 14 14 14 14 14 13 13 13 13 14 14
16 16 16 16 15 15 15 15 15 15 15 15 14 14 14 14 14 14 14 14 14 14 14 15 15 15 15 15 14 14 14 14 14 14 14 14 14 14 14 13 13 13 13
16 16 16 16 16 15 15 15 15 15 15 15 15 14 14 14 14 14 14 14 14 14 14 14 15 15 15 15 15 14 14 14 14 14 14 14 14 14 14 14 14 13 13
16 16 16 16 16 16 15 15 15 15 15 15 15 14 14 14 14 14 14 14 14 14 14 14 14 15 15 15 14 15 15 14 14 14 14 14 14 14 14 14 14 14 13
16 16 16 16 16 16 15 15 15 15 15 15 14 14 14 14 14 14 14 14 14 14 14 14 14 14 14 14 14 14 14 15 14 14 14 14 14 14 14 14 14 14 14
16 16 16 16 16 16 16 15 15 15 15 15 14 14 14 14 14 14 14 14 13 13 13 13 13 14 14 14 14 14 14 14 14 14 14 14 14 14 14 14 14 14 14
16 16 16 16 16 15 15 15 15 15 15 14 14 14 14 14 14 14 13 13 13 13 13 13 13 13 13 13 13 13 13 13 13 14 14 14 14 14 14 14 14 14 14
16 15 15 15 15 15 15 14 14 14 14 14 13 13 13 13 13 13 13 13 13 12 12 12 12 12 12 12 12 12 12 12 12 12 12 12 13 13 14 14 14 13 13
15 15 14 14 14 14 14 14 13 13 13 13 13 13 12 12 12 12 12 12 12 12 12 11 11 12 11 11 11 11 11 11 11 12 11 11 12 12 13 13 13 13 13
14 14 14 13 13 13 13 13 13 12 12 12 12 11 11 11 11 11 11 11 11 11 11 11 11 11 11 11 10 10 10 10 10 11 11 11 11 11 11 12 12 13 12
13 13 12 12 12 12 12 12 11 11 11 11 11 10 10 10 10 10 10 10 10 10 10 10 10 10 10 10 10 10 9 9 9 9 10 10 10 9 9 10 11 12 12
Wind_Speed
4 3 3 3 2 2 2 2 2 3 3 3 2 2 3 3 5 4 4 6 9 10 10 10 11 11 11 11 11 11 11 11 10 10 10 10 10 10 9 9 8 8 8
5 4 3 3 2 2 2 3 3 3 2 3 2 2 2 2 3 3 2 3 6 7 8 9 10 10 11 11 12 12 12 12 11 11 11 11 11 10 10 10 9 9 8
7 5 4 2 2 3 4 4 4 4 3 2 3 2 2 2 2 1 2 2 3 5 7 8 9 10 10 11 11 12 12 13 13 13 12 12 12 11 11 11 10 10 9
8 6 4 3 3 4 4 3 3 3 3 3 2 2 2 2 1 0 1 2 2 3 5 7 9 9 9 9 10 10 12 13 14 14 13 13 13 13 12 11 11 11 11
8 7 4 4 5 4 3 3 3 2 3 3 3 3 3 2 2 1 0 1 2 3 4 6 7 9 9 9 9 10 11 13 14 14 14 14 14 14 14 13 13 13 12
8 8 5 5 5 4 3 3 3 3 3 2 3 4 3 3 2 2 2 1 1 2 3 3 4 5 7 8 9 10 10 12 13 14 15 15 15 16 16 16 15 14 14
9 8 5 5 4 4 3 4 3 4 3 2 3 3 3 3 3 3 2 2 1 1 1 2 3 3 4 6 7 9 9 11 12 13 15 15 15 15 16 17 17 17 16
8 7 6 5 4 4 4 3 3 3 2 2 2 3 2 3 3 3 2 2 2 2 1 0 1 2 3 3 4 7 8 9 9 11 13 15 15 14 15 16 17 18 18
7 8 8 6 5 4 4 3 4 4 3 2 1 3 3 2 2 2 2 2 2 1 2 2 1 1 2 3 3 3 4 6 7 8 10 12 13 14 15 15 16 17 18
6 8 8 7 5 4 4 3 3 3 4 2 1 2 1 2 2 0 2 2 2 1 1 1 1 1 1 2 2 3 3 4 5 5 6 8 10 12 12 14 14 15 17
4 6 7 6 5 4 4 4 3 3 3 3 2 2 2 2 1 2 1 2 2 2 2 2 2 2 2 3 3 4 4 4 4 4 5 5 6 8 10 11 13 14 15
2 4 6 6 5 4 4 4 3 4 3 3 2 2 3 2 2 2 2 1 1 2 2 2 2 3 4 4 5 5 5 5 5 4 4 5 5 6 6 7 8 10 11
3 5 5 5 4 4 5 4 4 3 3 3 3 2 2 2 2 3 2 1 1 2 2 2 2 4 4 5 6 6 7 7 7 7 6 6 6 6 7 7 8 8 9
5 5 6 6 6 6 6 5 3 3 3 3 3 3 2 2 2 2 3 3 1 1 2 3 2 3 4 5 7 7 7 9 9 10 9 9 9 9 9 9 9 10 10
4 6 6 6 6 6 6 5 4 4 4 3 3 3 2 2 2 2 2 3 3 2 2 2 2 2 3 5 7 7 9 10 11 12 12 12 12 13 13 12 12 13 13
5 6 7 7 6 6 6 6 4 4 5 4 3 4 3 2 2 2 2 2 2 3 3 2 3 2 3 4 6 7 9 12 13 14 15 16 16 16 16 16 16 15 15
7 7 7 7 7 7 7 7 6 6 6 5 5 5 5 4 3 3 3 3 3 3 4 4 3 3 3 4 5 6 8 10 11 15 17 18 19 19 19 19 19 18 18
7 7 7 7 7 8 8 8 8 8 8 8 7 7 7 5 5 5 4 5 4 5 5 6 4 3 5 5 5 5 7 9 10 14 17 19 20 21 21 21 21 21 20
5 6 6 7 7 7 8 8 9 8 9 9 8 8 8 7 7 6 6 6 5 6 6 6 6 4 4 4 4 5 6 7 10 12 16 18 20 22 22 22 23 22 22
5 5 6 7 7 7 7 8 8 8 8 8 8 9 8 8 9 8 7 8 7 6 6 6 7 6 6 5 4 5 7 5 6 8 11 14 16 19 21 22 23 23 23
4 4 4 4 4 4 5 7 7 8 7 7 7 7 8 8 9 8 7 7 7 6 6 7 7 7 7 5 6 5 7 8 8 6 7 8 9 10 13 16 19 22 23
2 3 3 2 2 1 3 5 6 5 5 5 6 5 5 5 6 7 8 8 7 7 8 7 8 9 10 8 7 7 7 8 8 4 4 7 6 9 10 13 17 20 22
3 3 3 3 2 2 2 1 1 1 1 1 2 1 1 1 1 2 4 4 4 6 7 7 9 10 9 7 7 9 8 9 11 8 7 11 10 12 12 15 19 22 24
4 3 4 4 4 5 5 5 5 4 4 3 3 2 2 3 4 3 3 3 4 4 4 4 6 8 8 7 7 8 10 10 11 9 8 11 12 13 12 14 19 23 25
6 6 5 6 6 6 8 7 6 4 4 4 4 5 4 3 5 5 3 4 5 5 5 7 8 11 13 14 11 7 7 8 10 10 7 8 10 12 13 13 15 21 25
7 8 8 8 8 7 9 9 6 4 3 3 3 3 4 3 5 5 3 3 6 7 7 9 8 9 9 11 11 8 8 9 9 8 6 6 9 8 9 9 10 12 14
Wind_Direction
141 136 127 115 101 107 111 94 72 66 68 69 82 116 131 146 150 154 175 189 191 195 195 193 194 192 190 188 186 184 184 182 181 181 180 177 176 175 174 171 167 164 163
147 142 133 125 123 135 135 113 97 88 78 76 70 87 115 131 144 145 169 189 191 197 204 205 207 204 203 200 197 195 193 192 189 190 191 188 186 186 186 184 180 179 177
150 144 131 127 144 145 125 104 87 80 77 76 63 62 79 98 134 162 187 201 209 215 216 214 213 212 212 211 208 205 203 200 198 199 200 199 197 197 197 195 192 192 192
153 141 131 135 142 133 122 108 87 79 69 72 65 42 44 47 56 157 203 215 230 230 227 223 218 216 217 219 217 216 214 211 209 207 207 207 206 206 206 205 203 203 202
152 143 135 133 135 122 111 109 78 89 87 78 79 54 37 35 22 32 55 208 226 234 231 227 223 220 222 225 224 224 224 220 217 215 214 214 213 213 213 214 213 212 210
146 137 128 126 130 116 104 97 94 75 78 84 79 59 38 32 35 34 13 6 253 228 219 216 216 219 222 226 227 227 228 228 223 222 222 222 221 219 218 219 219 219 217
144 135 126 121 124 123 127 124 106 87 64 56 79 41 17 28 42 34 20 20 12 349 183 197 207 211 224 230 230 230 230 231 230 227 226 227 227 225 225 224 224 223 222
146 142 136 135 131 122 113 115 120 110 72 52 109 93 29 358 2 14 13 21 7 8 16 313 187 204 218 226 235 233 228 228 231 232 230 231 229 228 228 229 230 229 227
149 143 145 141 139 134 135 134 133 131 128 65 68 135 144 211 304 341 5 13 4 7 357 348 265 218 213 217 231 231 223 227 234 238 233 228 227 230 232 233 233 232 231
148 148 148 145 143 139 140 143 133 132 134 133 86 61 107 147 150 328 335 349 353 350 326 317 307 283 237 224 234 233 216 215 222 228 228 227 226 230 233 235 235 234 234
145 152 152 147 144 145 147 137 131 132 132 146 151 136 108 78 96 146 239 321 339 324 304 288 274 261 249 233 232 233 222 210 209 218 223 225 231 235 238 241 242 240 239
149 162 159 156 155 152 155 152 146 139 136 137 145 151 157 158 168 158 180 235 284 305 311 291 264 254 248 237 237 236 230 228 228 228 232 234 240 245 248 252 253 252 249
186 190 171 168 169 173 167 156 152 153 152 151 159 162 168 169 155 153 153 173 245 300 314 293 265 258 250 239 241 241 240 237 237 238 242 246 247 251 255 258 262 263 261
193 184 182 185 185 180 174 165 162 171 168 170 174 169 169 176 170 168 162 153 162 303 301 285 301 265 255 245 246 246 246 247 246 245 247 250 252 254 257 260 262 264 264
187 183 186 190 192 188 182 171 181 189 180 190 190 188 192 198 188 186 173 166 162 210 265 278 288 297 275 256 255 249 249 254 255 254 254 255 257 258 259 260 262 263 263
189 183 191 195 196 196 190 184 189 195 191 202 200 198 208 215 205 194 190 186 180 184 231 259 260 278 289 281 266 253 256 261 262 261 261 261 261 261 261 261 261 262 261
195 197 199 198 201 203 198 197 206 198 203 212 210 210 221 210 210 206 195 192 194 188 227 262 248 262 267 271 276 267 263 260 263 263 263 263 263 262 261 261 260 260 260
204 204 200 202 208 208 203 205 214 211 212 219 221 218 228 219 219 217 209 211 212 208 221 257 264 254 250 257 264 268 268 263 259 264 264 263 263 262 261 260 259 259 258
204 201 197 207 214 213 210 213 216 217 218 223 223 222 229 221 229 227 223 225 226 222 219 240 262 256 260 258 268 273 270 267 266 265 264 262 261 260 260 259 258 258 257
199 204 207 213 218 216 216 218 218 222 225 229 230 230 232 227 233 234 233 234 233 233 230 240 259 264 263 259 252 268 279 269 270 272 265 263 260 260 259 258 257 256 255
205 203 203 210 215 215 223 219 219 224 226 233 237 237 239 236 237 236 239 239 233 239 244 249 261 269 270 262 260 258 273 284 280 262 266 265 261 261 263 260 256 254 253
152 149 167 169 173 229 255 225 217 229 232 236 243 244 244 247 253 247 246 241 230 238 248 252 261 265 272 270 269 266 274 282 286 257 247 272 264 266 265 260 256 254 254
108 105 102 105 90 28 16 35 152 177 223 251 253 260 276 348 332 295 287 281 269 261 250 254 263 268 276 280 280 277 268 266 269 271 273 281 274 272 269 264 257 255 255
98 93 81 84 76 48 57 76 84 85 72 57 52 57 60 32 19 3 343 338 325 313 294 272 264 273 278 283 276 274 277 277 272 266 253 271 276 273 274 268 259 255 254
84 78 74 72 71 49 46 61 79 81 72 54 47 50 56 42 15 18 18 345 325 314 309 305 295 288 289 288 284 281 275 274 278 277 251 258 275 279 278 272 264 255 253
85 79 70 64 66 58 48 56 71 77 69 46 33 36 42 22 2 6 360 330 312 308 314 314 308 304 298 292 286 266 264 270 275 279 260 253 275 283 283 272 266 267 265
Height
1556 1558 1559 1560 1561 1562 1564 1564 1565 1566 1567 1568 1569 1570 1571 1572 1573 1574 1575 1576 1577 1578 1579 1580 1582 1583 1584 1586 1587 1588 1589 1591 1592 1593 1594 1595 1596 1597 1598 1599 1600 1600 1601
1556 1558 1559 1560 1561 1562 1563 1564 1565 1566 1567 1568 1569 1570 1571 1572 1573 1574 1575 1576 1577 1578 1579 1580 1581 1582 1584 1585 1587 1588 1589 1590 1592 1593 1594 1595 1596 1597 1598 1599 1600 1600 1601
1556 1557 1558 1560 1561 1562 1563 1564 1565 1566 1567 1568 1569 1570 1571 1572 1573 1574 1575 1576 1576 1577 1578 1579 1580 1582 1583 1584 1586 1587 1589 1590 1591 1592 1593 1595 1596 1597 1598 1598 1599 1600 1601
1555 1556 1558 1559 1561 1562 1563 1564 1565 1566 1567 1568 1569 1570 1571 1572 1572 1573 1574 1575 1576 1577 1578 1579 1580 1581 1582 1583 1584 1586 1587 1589 1590 1591 1592 1594 1595 1596 1597 1598 1599 1600 1600
1555 1556 1557 1559 1560 1561 1562 1563 1565 1566 1567 1568 1569 1570 1571 1571 1572 1573 1574 1574 1575 1576 1577 1578 1579 1580 1581 1582 1583 1584 1586 1587 1588 1590 1591 1592 1593 1594 1596 1597 1597 1598 1599
1554 1555 1557 1558 1559 1561 1562 1563 1564 1566 1567 1568 1569 1570 1571 1571 1572 1572 1573 1574 1574 1575 1576 1577 1578 1579 1579 1580 1581 1582 1584 1585 1586 1588 1589 1590 1591 1593 1594 1595 1596 1597 1598
1553 1555 1556 1558 1559 1560 1561 1562 1564 1565 1567 1568 1569 1570 1571 1571 1572 1572 1573 1573 1574 1575 1575 1576 1577 1577 1578 1579 1580 1581 1582 1583 1584 1585 1586 1587 1589 1590 1591 1592 1593 1594 1595
1553 1554 1556 1557 1558 1560 1561 1562 1563 1565 1566 1568 1569 1570 1571 1572 1571 1572 1572 1573 1573 1574 1575 1575 1576 1576 1577 1578 1578 1579 1580 1581 1581 1582 1583 1584 1586 1587 1588 1589 1590 1591 1593
1553 1554 1555 1557 1558 1559 1560 1561 1563 1564 1566 1567 1568 1570 1570 1570 1571 1572 1572 1572 1573 1573 1574 1575 1575 1576 1576 1576 1577 1578 1578 1579 1579 1580 1581 1582 1583 1584 1585 1586 1587 1588 1589
1552 1554 1555 1556 1558 1559 1560 1561 1562 1563 1565 1566 1568 1569 1570 1570 1571 1571 1572 1572 1572 1573 1573 1574 1574 1575 1575 1575 1576 1576 1576 1577 1577 1578 1578 1579 1580 1580 1581 1582 1583 1584 1585
1551 1553 1555 1556 1557 1558 1559 1560 1561 1563 1564 1565 1566 1567 1568 1569 1569 1570 1570 1571 1572 1572 1572 1573 1573 1574 1574 1574 1574 1575 1575 1575 1575 1576 1576 1576 1577 1578 1578 1579 1579 1581 1582
1551 1552 1554 1555 1556 1557 1558 1559 1560 1562 1563 1564 1565 1566 1567 1567 1568 1568 1569 1569 1570 1571 1571 1572 1572 1572 1573 1573 1573 1573 1573 1574 1574 1574 1574 1574 1574 1574 1575 1575 1576 1577 1577
1550 1552 1553 1555 1556 1557 1558 1558 1560 1561 1562 1563 1564 1564 1565 1566 1566 1567 1567 1568 1568 1569 1569 1570 1570 1571 1571 1571 1571 1572 1572 1572 1572 1572 1572 1571 1571 1571 1571 1571 1572 1572 1573
1550 1552 1553 1554 1555 1556 1557 1557 1558 1559 1560 1561 1562 1563 1564 1564 1565 1565 1566 1566 1566 1567 1567 1567 1568 1568 1569 1569 1570 1570 1570 1570 1569 1569 1569 1569 1568 1568 1568 1567 1568 1568 1568
1549 1551 1552 1553 1554 1555 1556 1556 1557 1558 1559 1560 1560 1561 1562 1562 1563 1563 1564 1564 1565 1564 1564 1564 1565 1566 1566 1567 1567 1567 1567 1567 1567 1566 1566 1565 1565 1564 1564 1564 1563 1563 1563
1548 1549 1551 1552 1553 1554 1554 1555 1556 1556 1557 1558 1558 1559 1560 1560 1561 1561 1561 1562 1562 1562 1562 1562 1562 1563 1563 1563 1564 1564 1564 1563 1563 1563 1562 1562 1561 1560 1560 1559 1559 1559 1559
1546 1548 1549 1550 1551 1552 1553 1553 1554 1554 1555 1555 1556 1556 1557 1557 1558 1558 1558 1559 1559 1559 1558 1558 1559 1559 1559 1560 1560 1560 1559 1559 1559 1558 1558 1557 1556 1556 1555 1555 1554 1554 1554
1543 1545 1547 1548 1549 1549 1550 1551 1551 1552 1552 1552 1553 1553 1554 1554 1554 1555 1555 1555 1555 1555 1555 1554 1554 1555 1555 1555 1555 1555 1555 1554 1554 1553 1553 1552 1551 1551 1550 1550 1550 1549 1549
1540 1542 1543 1544 1545 1546 1547 1547 1548 1548 1548 1549 1549 1549 1550 1550 1550 1551 1551 1551 1551 1551 1551 1550 1549 1550 1550 1550 1550 1549 1549 1548 1548 1548 1547 1546 1546 1545 1545 1544 1544 1544 1543
1537 1538 1540 1541 1542 1542 1543 1543 1543 1544 1544 1544 1545 1545 1545 1546 1546 1546 1546 1546 1547 1547 1546 1545 1544 1544 1544 1544 1544 1543 1542 1542 1541 1541 1540 1540 1539 1539 1538 1538 1538 1537 1537
1533 1535 1536 1537 1538 1538 1539 1539 1539 1539 1540 1540 1540 1540 1541 1541 1541 1542 1542 1542 1542 1541 1541 1540 1539 1538 1538 1538 1537 1536 1535 1534 1533 1533 1532 1532 1532 1531 1531 1530 1530 1530 1530
1530 1531 1531 1532 1533 1533 1534 1534 1534 1534 1535 1535 1535 1535 1535 1535 1536 1536 1536 1536 1536 1536 1535 1534 1533 1532 1531 1531 1530 1529 1528 1526 1524 1525 1524 1523 1523 1522 1522 1522 1522 1522 1521
1526 1527 1527 1528 1528 1529 1529 1529 1529 1529 1529 1529 1529 1529 1529 1529 1530 1530 1530 1530 1529 1529 1529 1528 1527 1525 1525 1524 1523 1521 1520 1518 1516 1516 1515 1512 1513 1512 1512 1512 1512 1512 1512
1523 1523 1523 1524 1524 1524 1524 1524 1524 1524 1524 1524 1524 1524 1524 1524 1524 1523 1523 1523 1523 1523 1522 1521 1520 1519 1518 1517 1516 1514 1512 1509 1507 1508 1507 1503 1502 1502 1501 1501 1501 1501 1501
1519 1520 1520 1521 1521 1521 1521 1521 1521 1520 1520 1520 1519 1519 1519 1519 1518 1518 1517 1516 1516 1516 1516 1514 1513 1512 1510 1510 1508 1506 1504 1501 1498 1497 1498 1495 1492 1491 1489 1488 1489 1490 1490
1517 1518 1518 1519 1518 1518 1518 1518 1518 1518 1517 1517 1516 1516 1515 1514 1513 1512 1510 1510 1509 1508 1508 1506 1505 1504 1502 1501 1500 1498 1495 1493 1489 1487 1487 1487 1484 1482 1478 1476 1478 1478 1478